Probability
0 0 0 0 0 0 0 0 0 0 0 0 0 0 0 0 0 0 0 0 0 0 0 0 0 0 0 0 0 0 0 0 0 0 0 0 0 0 0 0 0 0 0
0 0 0 0 0 0 0 0 0 0 0 0 0 0 0 0 0 0 0 0 0 0 0 0 0 0 0 0 0 0 0 0 0 0 0 0 0 0 0 0 0 0 0
0 0 0 0 0 0 0 0 0 0 0 0 0 0 0 0 0 0 0 0 0 0 0 0 0 0 0 0 0 0 0 0 0 0 0 0 0 0 0 0 0 0 0
0 0 0 0 0 0 0 0 0 0 0 0 0 0 0 0 0 0 0 0 0 0 0 0 0 0 0 0 0 0 0 0 0 0 0 0 0 0 0 0 0 0 0
0 0 0 0 0 0 0 0 0 0 0 0 0 0 0 0 0 0 0 0 0 0 0 0 0 0 0 0 0 0 0 0 0 0 0 0 0 0 0 0 0 0 0
0 0 0 0 0 0 0 0 0 0 0 0 0 0 0 0 0 0 0 0 0 0 0 0 0 0 0 0 0 0 0 0 0 0 0 0 0 0 0 0 0 0 0
0 0 0 0 0 0 0 0 0 0 0 0 0 0 0 0 0 0 0 0 0 0 0 0 0 0 0 0 0 0 0 0 0 0 0 0 0 0 0 0 0 0 0
0 0 0 0 0 0 0 0 0 0 0 0 0 0 0 0 0 0 0 0 0 0 0 0 0 0 0 0 0 0 0 0 0 0 0 0 0 0 0 0 0 0 0
0 0 0 0 0 0 0 0 0 0 0 0 0 0 0 0 0 0 0 0 0 0 0 0 0 0 0 0 0 0 0 0 0 0 0 0 0 0 0 0 0 0 0
0 0 0 0 0 0 0 0 0 0 0 0 0 0 0 0 0 0 0 0 0 0 0 0 0 0 0 0 0 0 0 0 0 0 0 0 0 0 0 0 0 0 0
0 0 0 0 0 0 0 0 0 0 0 0 0 0 0 0 0 0 0 0 0 0 0 0 0 0 0 0 0 0 0 0 0 0 0 0 0 0 0 0 0 0 0
0 0 0 0 0 0 0 0 0 0 0 0 0 0 0 0 0 0 0 0 0 0 0 0 0 0 0 0 0 0 0 0 0 0 0 0 0 0 0 0 0 0 0
0 0 0 0 0 0 0 0 0 0 0 0 0 0 0 0 0 0 0 0 0 0 0 0 0 0 0 0 0 0 0 0 0 0 0 0 0 0 0 0 0 0 0
0 0 0 0 0 0 0 0 0 0 0 0 0 0 0 0 0 0 0 0 0 0 0 0 0 0 0 0 0 0 0 0 0 0 0 0 0 0 0 0 0 0 0
0 0 0 0 0 0 0 0 0 0 0 0 0 0 0 0 0 0 0 0 0 0 0 0 0 0 0 0 0 0 0 0 0 0 0 0 0 0 0 0 0 0 0
0 0 0 0 0 0 0 0 0 0 0 0 0 0 0 0 0 0 0 0 0 0 0 0 0 0 0 0 0 0 0 0 0 0 0 0 0 0 0 0 0 0 0
0 0 0 0 0 0 0 0 0 0 0 0 0 0 0 0 0 0 0 0 0 0 0 0 0 0 0 0 0 0 0 0 0 0 0 0 0 0 0 0 0 0 0
0 0 0 0 0 0 0 0 0 0 0 0 0 0 0 0 0 0 0 0 0 0 0 0 0 0 0 0 0 0 0 0 0 0 0 0 0 0 0 0 0 0 0
0 0 0 0 0 0 0 0 0 0 0 0 0 0 0 0 0 0 0 0 0 0 0 0 0 0 0 0 0 0 0 0 0 0 0 0 0 0 0 0 0 0 0
0 0 0 0 0 0 0 0 0 0 0 0 0 0 0 0 0 0 0 0 0 0 0 0 0 0 0 0 0 0 0 0 0 0 0 0 0 0 0 0 0 0 0
0 0 0 0 0 0 0 0 0 0 0 0 0 0 0 0 0 0 0 0 0 0 0 0 0 0 0 0 0 0 0 0 0 0 0 0 0 0 0 0 0 0 0
0 0 0 0 0 0 0 0 0 0 0 0 0 0 0 0 0 0 0 0 0 0 0 0 0 0 0 0 0 0 0 0 0 0 0 0 0 0 0 0 0 0 0
0 0 0 0 0 0 0 0 0 0 0 0 0 0 0 0 0 0 0 0 0 0 0 0 0 0 0 0 0 0 0 0 0 0 0 0 0 0 0 0 0 0 0
0 0 0 0 0 0 0 0 0 0 0 0 0 0 0 0 0 0 0 0 0 0 0 0 0 0 0 0 0 0 0 0 0 0 0 0 0 0 0 0 0 0 0
0 0 0 0 0 0 0 0 0 0 0 0 0 0 0 0 0 0 0 0 0 0 0 0 0 0 0 0 0 0 0 0 0 0 0 0 0 0 0 0 0 0 0
0 0 0 0 0 0 0 0 0 0 0 0 0 0 0 0 0 0 0 0 0 0 0 0 0 0 0 0 0 0 0 0 0 0 0 0 0 0 0 0 0 0 0
Wind_Speed
1 1 1 0 0 0 0 1 1 2 2 1 1 2 2 2 2 2 1 1 2 2 2 1 2 2 1 1 0 1 1 2 2 2 2 2 2 2 3 2 2 2 2
1 1 1 1 1 1 1 2 1 2 2 1 1 1 2 2 2 1 2 2 1 2 2 2 3 2 2 1 1 1 1 2 2 2 2 2 2 2 2 2 2 2 2
2 2 2 1 1 1 2 2 2 2 2 2 2 1 2 2 2 2 1 1 1 2 2 2 3 2 2 2 2 2 2 1 2 2 2 2 2 2 2 2 2 1 2
2 2 1 1 0 1 1 2 2 2 2 2 2 2 2 2 2 2 1 2 2 2 2 2 2 2 2 2 2 2 2 1 1 2 2 2 2 2 1 1 2 1 2
3 2 1 1 1 1 1 2 2 2 2 2 2 3 3 2 2 2 2 2 2 3 3 3 3 3 4 3 2 2 1 1 1 2 2 2 2 1 2 1 2 2 2
3 1 1 1 2 1 1 1 2 2 2 2 2 2 3 3 5 4 2 2 2 2 3 4 4 4 5 5 5 4 3 3 3 2 3 3 4 3 2 2 2 1 2
2 1 1 1 1 1 1 1 1 2 2 2 2 2 3 4 6 6 5 2 2 2 3 3 4 4 4 3 4 5 4 5 6 4 4 5 4 4 3 3 3 3 4
2 1 1 1 1 1 1 1 1 1 1 1 2 3 3 5 7 7 6 2 2 3 3 3 4 5 4 4 3 4 4 4 5 4 5 6 6 5 4 4 4 3 3
1 1 1 0 0 1 1 1 1 1 1 2 2 2 3 5 7 7 6 2 2 4 4 4 4 5 8 7 3 4 5 5 5 6 7 7 9 8 5 2 2 2 3
0 1 1 0 0 1 1 1 1 1 2 2 2 3 3 4 7 8 6 1 2 4 4 4 6 6 8 7 4 4 6 7 5 5 5 6 5 5 6 5 5 4 3
0 1 1 1 0 0 1 1 1 1 2 2 3 3 3 4 7 8 7 2 2 3 4 4 4 9 9 9 6 5 8 7 4 4 4 4 3 3 3 4 5 5 5
1 1 1 1 1 1 1 1 1 1 2 3 3 4 3 4 5 7 8 6 5 3 4 4 5 10 10 10 7 7 10 7 3 3 4 4 4 4 4 4 5 5 5
1 1 1 1 1 1 0 1 1 1 1 2 2 3 4 4 5 9 9 9 8 4 4 8 10 11 9 7 8 9 7 3 3 4 5 5 5 5 3 3 3 4 4
1 1 1 2 2 2 1 1 1 1 2 2 3 4 4 4 4 4 4 5 6 5 5 7 10 9 6 6 7 5 3 4 4 5 5 5 3 3 3 3 3 2 3
1 1 1 1 2 2 2 2 2 3 3 3 3 4 4 5 7 9 6 4 4 4 5 3 3 3 3 3 4 4 4 3 4 4 5 4 4 4 4 3 3 3 3
1 1 1 1 2 2 2 4 4 5 7 8 7 6 6 8 11 12 11 11 10 9 4 3 4 4 4 5 5 5 4 4 4 5 5 5 5 5 5 3 3 4 5
1 1 1 1 2 2 2 3 5 6 7 7 8 9 9 11 12 11 11 11 9 7 3 4 5 5 5 5 5 5 5 5 4 5 6 6 5 5 5 5 5 5 5
1 1 1 1 2 2 2 3 3 4 5 5 6 9 11 11 11 11 11 7 4 3 3 4 5 5 5 5 5 6 6 5 5 5 6 6 6 6 6 6 6 6 6
1 1 2 2 2 2 3 3 3 4 4 5 5 7 10 10 10 9 7 3 4 5 5 5 5 6 6 6 6 6 6 6 6 6 6 6 6 6 6 6 6 8 7
2 4 3 2 2 2 3 3 3 4 5 5 5 6 5 5 5 5 4 4 5 5 5 6 6 6 6 6 6 6 6 6 6 6 7 6 6 6 7 7 6 6 6
2 3 5 3 3 3 3 4 4 4 5 5 6 7 9 5 6 6 6 6 6 6 6 6 6 6 7 6 6 7 8 7 6 7 7 6 6 6 6 6 6 6 5
2 2 3 3 3 4 4 4 4 5 6 7 6 7 11 6 5 6 6 7 7 6 6 6 6 6 6 7 7 7 7 7 7 7 6 6 6 6 6 6 6 5 6
2 3 3 3 4 6 5 4 5 5 6 7 7 7 6 6 6 7 7 7 7 7 6 6 7 7 7 7 7 7 8 8 7 7 6 6 6 6 6 6 7 7 7
2 3 4 4 4 4 5 5 5 6 6 7 7 7 7 7 7 8 8 7 7 7 7 6 7 10 12 9 7 7 8 8 8 7 8 8 8 7 7 7 7 8 8
3 4 4 5 5 5 5 6 6 7 7 7 7 7 7 7 7 8 7 7 8 8 9 9 7 8 11 13 11 10 11 13 12 8 7 7 8 8 8 8 8 7 8
4 4 5 5 5 5 6 6 7 7 7 7 7 7 7 7 8 8 7 7 8 8 9 8 10 11 13 11 12 13 14 14 13 12 8 6 8 8 7 7 9 8 8
Wind_Direction
146 153 130 193 261 183 296 291 295 313 322 331 336 350 355 357 1 22 4 10 13 349 349 345 320 311 310 296 223 192 201 182 225 278 272 289 304 318 323 309 291 286 289
138 112 101 72 55 37 347 322 320 324 327 332 352 360 352 353 357 7 346 356 359 339 330 335 320 324 314 295 256 234 225 206 203 263 294 301 288 291 300 303 307 293 276
108 96 72 57 48 3 339 339 349 351 347 356 17 2 343 341 342 333 330 332 323 307 306 305 302 321 312 299 275 258 248 226 201 223 275 285 288 296 313 308 300 306 295
101 94 75 28 341 320 339 355 359 8 7 357 355 339 329 327 327 324 334 333 322 320 316 304 294 281 273 284 284 266 247 233 218 229 261 278 280 292 295 292 308 309 303
100 88 55 9 20 28 19 3 3 9 4 355 1 348 336 326 323 323 314 322 319 322 325 320 304 300 293 282 279 269 240 234 232 235 254 272 273 274 265 260 276 299 293
105 94 36 42 35 28 13 17 19 6 356 4 354 343 338 331 336 333 320 308 304 305 307 311 310 314 317 318 305 280 241 230 231 230 243 248 258 246 243 241 248 273 283
101 71 45 45 27 353 10 39 15 349 356 351 336 335 321 314 331 336 329 311 293 287 289 300 310 315 315 307 315 318 298 269 241 224 235 244 245 234 224 239 234 233 241
79 42 22 32 348 347 23 2 330 331 329 316 317 317 316 320 333 336 335 320 293 286 280 275 280 293 297 297 299 307 299 289 270 248 239 247 246 236 221 231 235 241 253
62 359 321 289 312 342 329 304 298 311 312 300 303 312 313 314 329 334 342 321 299 293 285 281 279 281 295 301 291 290 297 295 289 275 265 266 266 256 231 212 226 227 253
282 282 300 312 151 286 284 288 289 286 289 302 310 306 300 302 322 332 337 321 306 300 298 293 290 289 296 299 275 265 279 284 295 302 292 289 281 271 247 222 217 224 237
291 18 8 345 324 302 322 314 308 313 326 323 314 308 301 301 317 326 330 318 289 293 296 296 293 301 297 293 285 260 263 275 280 280 282 283 283 273 258 236 223 219 223
65 44 8 344 333 9 18 348 343 344 341 325 321 318 310 306 310 317 322 317 310 285 285 286 289 300 300 297 288 276 278 283 273 273 272 270 269 265 258 246 238 235 235
69 29 348 346 345 348 357 328 335 338 326 311 310 306 306 307 309 317 319 316 312 298 281 288 293 298 302 300 289 287 288 274 263 263 261 259 254 255 255 253 249 243 248
87 355 339 345 336 334 325 294 294 296 299 302 298 294 297 302 301 305 307 308 306 305 300 300 302 299 292 285 294 292 275 256 254 256 260 259 260 258 249 239 242 237 251
70 359 339 329 316 317 312 286 272 259 253 271 270 269 282 293 290 297 303 297 292 286 303 305 305 304 300 294 290 284 276 274 269 265 259 257 259 256 250 236 230 226 234
89 331 317 311 307 307 312 316 301 285 299 295 287 282 275 277 296 304 303 301 302 303 305 287 285 284 281 281 284 286 278 269 269 270 261 250 250 254 252 241 230 226 236
186 265 291 295 296 297 300 305 311 316 315 311 307 306 297 297 301 303 303 302 301 304 288 275 275 276 276 275 272 271 273 269 267 269 267 259 251 251 250 243 236 234 238
228 274 280 269 276 282 284 284 285 294 308 308 306 305 307 306 305 304 306 312 304 298 268 269 274 274 273 274 272 271 272 273 268 267 265 264 256 248 248 245 236 233 236
257 271 270 271 275 277 282 286 286 287 286 291 301 305 307 308 307 304 306 285 274 275 273 270 270 272 270 269 269 269 268 268 269 269 264 260 258 252 248 246 241 236 234
264 284 290 277 277 282 283 284 286 286 287 289 291 292 301 309 305 302 293 277 271 271 270 270 271 271 271 268 266 266 266 265 266 267 264 259 254 251 252 249 241 240 237
268 291 301 299 279 274 275 276 277 280 282 283 281 283 289 289 285 285 283 278 272 272 271 271 270 270 270 268 265 264 263 263 260 260 261 259 255 252 250 249 244 239 238
254 263 268 269 274 276 276 273 274 276 279 281 284 287 291 284 278 280 279 277 272 268 268 270 271 267 264 264 265 265 263 261 259 257 256 256 256 254 250 246 244 237 236
253 267 275 274 273 282 286 280 278 278 279 280 282 284 284 279 278 278 278 279 277 275 273 269 271 274 272 267 260 258 261 261 257 251 250 255 257 255 249 247 246 240 234
253 260 266 272 274 273 275 278 278 278 278 279 281 280 279 278 279 280 280 280 281 280 274 271 269 271 274 274 268 260 257 259 260 254 247 248 252 255 252 249 247 241 234
254 260 264 267 271 273 275 277 277 278 278 279 280 281 281 280 280 281 281 280 281 283 282 278 274 274 274 274 272 268 264 262 262 259 253 249 250 250 250 248 245 240 235
259 263 266 268 269 270 272 274 276 277 277 278 278 278 279 281 282 282 283 283 284 283 284 283 278 277 279 278 274 270 268 266 264 261 255 250 248 248 248 250 245 237 234